Location: Nairn
(57.5833°N, 3.8667°W)
Time: 02:15:57
(UTC+00:00)

Cosmos 2151 Rocket - Pass Details

Date: 07 August 2020
Orbit: 618 x 641 km, 82.5° (Epoch: 19 September)

Event Time Altitude Azimuth Distance (km) Brightness Sun altitude
Exits shadow 01:12:29 19° 154° (SSE) 1,480 5.1 -15.3°
Maximum altitude 01:15:12 41° 93° (E) 908 4.5 -15.2°
Drops below altitude 10° 01:19:22 10° 24° (NNE) 2,002 7.5 -15.1°
Sets 01:21:41 0° 17° (NNE) 2,911 9.0 -15.0°
